This demonstration page uses our WeatherBlox Daily Observations layout. Learn more.

Left ArrowRight Arrow

44.8408, -93.29828

Hourly Observations for June 10, 2015

Temp ( °F °C ) Dew Point ( °F °C ) Humidity (%) Winds ( mph kmh ) Pressure ( in mb ) Visibility ( mi km ) Precip ( " mm )
12:53 am 00:53 Clear 76 24.4 59 15 56 56 NNW 16 26 29.64 1004 10 16 0.00 0.00
1:53 am 01:53 Clear 72 22.2 52 11.1 50 50 NW 12 19 29.67 1005 10 16 0.00 0.00
2:53 am 02:53 Clear 70 21.1 51 10.6 51 51 N 12 19 29.69 1005 10 16 0.00 0.00
3:53 am 03:53 Clear 67 19.4 51 10.6 57 57 NW 6 9 29.72 1006 10 16 0.00 0.00
4:53 am 04:53 Clear 65 18.3 50 10 59 59 NW 5 7 29.74 1007 10 16 0.00 0.00
5:53 am 05:53 Mostly Sunny 63 17.2 51 10.6 65 65 NW 6 9 29.76 1008 9 14 0.00 0.00
6:53 am 06:53 Partly Cloudy 65 18.3 53 11.7 66 66 NW 6 9 29.77 1008 9 14 0.00 0.00
7:53 am 07:53 Partly Cloudy 68 20 54 12.2 61 61 N 6 9 29.78 1009 8 13 0.00 0.00
8:53 am 08:53 Partly Cloudy 70 21.1 53 11.7 55 55 NNW 10 17 29.80 1009 8 13 0.00 0.00
9:53 am 09:53 Mostly Sunny 72 22.2 52 11.1 50 50 NNW 9 15 29.80 1009 9 14 0.00 0.00
10:53 am 10:53 Mostly Sunny 74 23.3 53 11.7 48 48 N 12 19 29.81 1009 10 16 0.00 0.00
11:53 am 11:53 Mostly Sunny 76 24.4 53 11.7 45 45 NNW 9 15 29.81 1009 10 16 0.00 0.00
12:53 pm 12:53 Partly Cloudy 76 24.4 51 10.6 42 42 NNW 15 24 29.81 1009 10 16 0.00 0.00
1:53 pm 13:53 Partly Cloudy 78 25.6 52 11.1 40 40 VRB 7 11 29.80 1009 10 16 0.00 0.00
2:53 pm 14:53 Mostly Cloudy 77 25 50 10 39 39 NNW 9 15 29.79 1009 9 14 0.00 0.00
3:53 pm 15:53 Mostly Cloudy 78 25.6 51 10.6 39 39 WNW 8 13 29.80 1009 9 14 0.00 0.00
4:53 pm 16:53 Mostly Cloudy 77 25 50 10 39 39 NNW 7 11 29.80 1009 10 16 0.00 0.00
5:53 pm 17:53 Cloudy 77 25 48 8.9 36 36 N 9 15 29.79 1009 10 16 0.00 0.00
6:53 pm 18:53 Cloudy 76 24.4 49 9.4 39 39 NNW 8 13 29.81 1010 10 16 0.00 0.00
7:53 pm 19:53 Cloudy 73 22.8 45 7.2 37 37 NNE 12 19 29.83 1010 10 16 0.00 0.00
8:53 pm 20:53 Cloudy 72 22.2 46 7.8 40 40 N 10 17 29.85 1011 10 16 0.00 0.00
9:53 pm 21:53 Cloudy with Light Rain 70 21.1 50 10 49 49 VRB 6 9 29.85 1011 10 16 0.00 0.03
10:53 pm 22:53 Cloudy 69 20.6 51 10.6 53 53 N 6 9 29.83 1010 10 16 0.00 0.03
11:53 pm 23:53 Mostly Cloudy 67 19.4 51 10.6 57 57 NNE 6 9 29.83 1010 10 16 0.00 0.00

Powered by AerisWeather